sat.trackr.live / text

‹ back to catalog

STARLINK-30362

NORAD 57745 · 2023-131P

PAYLOAD ACTIVE UNKNOWN

§ Identity

Operator
Country
US
Launch date
2023-09-01
Launch site
AFETR
Launch vehicle
Mass (kg)
RCS (m²)

Purposes: comms

External: N2YO · Heavens-Above · Gunter

§ Orbital elements

Epoch: 2026-05-24T14:46:54.224832Z

Period
94.27 min
Inclination
43.0035°
Eccentricity
0.0000589
Mean motion
15.27561365 rev/d
Perigee alt
482.7 km
Apogee alt
483.5 km
Semi-major
6,861.2 km
B*
6.0486e-6
RAAN
104.0634°
Arg perigee
269.6279°
Mean anomaly
90.4505°
Rev number
15,152

§ Raw data

STARLINK-303621 57745U 23131P   26144.61590538 -.00000095  00000+0  60486-5 0  99952 57745  43.0035 104.0634 0000589 269.6279  90.4505 15.27561365151524

JSON: /api/v1/satellites/57745 · /tle

For live sub-satellite position, see the globe view (requires WebGL).

§ Visibility from observer

Set your observer location to see the next 7 days of passes ≥ 10°. The values pass through the URL so the page stays shareable.

No JS? Fill the form by hand. The geolocation button needs JavaScript.